STARLINK-31488, 59009

Orbit data source: Space-Track

STARLINK-31488, 59009 is a payload satellite owned by SpaceX/Seattle (US) in LEO that was launched on Fri, 23 Feb 2024 UTC via an FALCON 9 launch vehicle from the Air Force Western Test Range (AFWTR). Payload-class satellites include a variety of spacecraft equipped with specific instruments for various scientific and technological missions. These include communications satellites like Starlink; space stations such as the ISS; scientific satellites like the Hubble; Earth observation satellites from companies like Planet Labs, Umbra, and HawkEye 360; GPS; miniature CubeSats for education and research; and military/defense satellites.

Loading next visibility...
Identifier
59009, 2024-036M
Orbit
LEO
Country
Flag of USUS
Related business
Manufacturer
SpaceX/Seattle
Mission
Operational Commercial Communications
Bus & Motor
STARLINK V2M, Unknown motor
Mass
730 kg wet, ~700 kg dry
Launch date (UTC)
2024-02-23 (2 years ago)
Launch vehicle
FALCON 9
Launch site
Air Force Western Test Range (AFWTR)
Object type
Payload
Rocket body
Debris
Shape & HBR
Box + 2 Pan, 17.7 m
Radar Cross Section
33.884 m², Large (>1 m²)

Expand to show TLE details & history
Last TLE update: 2 days ago

TLE from 2 days ago
0 STARLINK-31488
1 59009U 24036M   26171.15013243  .00000815  00000-0  39654-4 0  9999
2 59009  53.1621 321.9746 0000968 103.0081 257.1028 15.30193370131014
Epoch: 2026-06-20T03:36Z
TLE epoch observation values (Epoch: 2026-06-20T03:36:11.441Z)
Latitude
-0.00004°
Longitude
-0.44199°
Altitude
476.283 km
Speed
7.629 km/s
True Right ascension
21h 27m 53s
True Declination
0° 00' 00"
Sunlit
Object was in full shadow at epoch
Visualization orbit readout
Latitude
Unknown
Longitude
Unknown
Altitude
Unknown
Speed
Unknown
Apparent Right ascension
Unknown
Apparent Declination
Unknown
Sunlit
N/A
Visualization observer readout
Local Sidereal Time
21:24:51
Azimuth
Unknown
Elevation
Unknown
Doppler factor
Unknown
Orbital elements
Apogee altitude
476.154 km
Perigee altitude
474.828 km
Semi-major axis
6,853.628 km
Eccentricity
0.0001
Inclination
53.1621°
RAAN
321.9746°
Arg. of periapsis
103.0081°
True anomaly
257.09199°
Mean anomaly
257.1028°
Eccentric anomaly
257.09739°
Mean motion
3.82527 °/min
Orbital period
94.11 mins
BSTAR
0.000039654
Loading maneuver chart data...
Computing Atmospheric mass density...
Loading historical data...
Loading historical data...
Loading historical data...
Loading historical data...
Loading historical data...
Loading historical data...
Loading historical data...

Documentation

Showing up to 5 results
|